TimeEST,TemperatureF,Dew PointF,Humidity,Sea Level PressureIn,VisibilityMPH,Wind Direction,Wind SpeedMPH,Gust SpeedMPH,PrecipitationIn,Events,Conditions,WindDirDegrees,DateUTC
12:43 AM,32.0,28.4,87,30.43,9.0,Calm,Calm,-,N/A,,Overcast,0,2013-01-27 05:43:00
12:51 AM,32.0,28.0,85,30.43,9.0,Calm,Calm,-,N/A,,Overcast,0,2013-01-27 05:51:00
1:14 AM,33.8,28.4,81,30.44,9.0,Calm,Calm,-,N/A,,Overcast,0,2013-01-27 06:14:00
1:37 AM,33.8,26.6,75,30.45,9.0,ENE,6.9,-,N/A,,Overcast,60,2013-01-27 06:37:00
1:51 AM,33.1,25.0,72,30.45,10.0,NE,6.9,-,N/A,,Overcast,50,2013-01-27 06:51:00
2:23 AM,33.8,24.8,70,30.45,10.0,NE,11.5,-,N/A,,Overcast,50,2013-01-27 07:23:00
2:51 AM,33.1,21.9,64,30.46,10.0,NNE,13.8,-,N/A,,Overcast,30,2013-01-27 07:51:00
2:59 AM,32.0,21.2,64,30.47,10.0,NE,13.8,-,N/A,,Overcast,40,2013-01-27 07:59:00
3:51 AM,32.0,21.0,64,30.47,10.0,NNE,13.8,-,N/A,,Overcast,30,2013-01-27 08:51:00
4:51 AM,30.9,19.9,64,30.49,10.0,NE,12.7,-,N/A,,Overcast,40,2013-01-27 09:51:00
5:51 AM,28.9,19.0,67,30.48,10.0,ENE,11.5,-,N/A,,Clear,60,2013-01-27 10:51:00
6:51 AM,30.0,19.0,64,30.52,10.0,NNE,11.5,-,N/A,,Clear,30,2013-01-27 11:51:00
7:51 AM,30.9,18.0,59,30.54,10.0,NNE,12.7,-,N/A,,Clear,30,2013-01-27 12:51:00
8:51 AM,32.0,18.0,56,30.56,10.0,NE,13.8,-,N/A,,Clear,40,2013-01-27 13:51:00
9:51 AM,34.0,18.0,52,30.59,10.0,NE,11.5,-,N/A,,Clear,40,2013-01-27 14:51:00
10:51 AM,35.1,18.0,50,30.60,10.0,NE,11.5,-,N/A,,Clear,40,2013-01-27 15:51:00
11:51 AM,36.0,18.0,48,30.59,10.0,NNE,8.1,-,N/A,,Clear,20,2013-01-27 16:51:00
12:51 PM,35.6,17.6,48,30.57,10.0,Variable,6.9,-,N/A,,Clear,0,2013-01-27 17:51:00
1:51 PM,37.0,19.0,48,30.55,10.0,NE,5.8,-,0.01,,Clear,50,2013-01-27 18:51:00
2:51 PM,36.0,17.1,46,30.54,10.0,East,3.5,-,N/A,,Clear,80,2013-01-27 19:51:00
3:51 PM,35.1,18.0,50,30.54,10.0,ENE,4.6,-,N/A,,Clear,60,2013-01-27 20:51:00
4:51 PM,34.0,19.0,54,30.56,10.0,Calm,Calm,-,N/A,,Clear,0,2013-01-27 21:51:00
5:51 PM,34.0,19.9,56,30.55,10.0,ESE,3.5,-,N/A,,Clear,110,2013-01-27 22:51:00
6:51 PM,33.1,21.0,61,30.56,10.0,SSE,3.5,-,N/A,,Clear,150,2013-01-27 23:51:00
7:51 PM,32.0,19.9,61,30.56,10.0,Calm,Calm,-,N/A,,Clear,0,2013-01-28 00:51:00
8:51 PM,28.9,19.0,67,30.55,10.0,South,4.6,-,N/A,,Clear,180,2013-01-28 01:51:00
9:51 PM,30.9,19.9,64,30.56,10.0,SSW,3.5,-,N/A,,Clear,200,2013-01-28 02:51:00
10:51 PM,30.0,19.9,66,30.55,10.0,Calm,Calm,-,N/A,,Clear,0,2013-01-28 03:51:00
11:51 PM,28.9,19.9,69,30.53,10.0,South,3.5,-,N/A,,Clear,190,2013-01-28 04:51:00